Retour au catalogue

LEMUR 2 VALHALLA

ActifMétéoSSO
NORAD 58900·PAYLOAD·🇺🇸 United States

Lancé Jan 31, 2024 depuis Rocket Lab Launch Complex 1

Loading…

Prochains Passages (prochaines 24 heures)

TLE

FraisSource: Space-Track

Époque: Sep 14, 2026, 00:59 UTC

1 58900U 24022B   26257.04145064  .00013995  00000-0  32882-3 0  9991
2 58900  97.3995 108.2205 0009513 143.9427 216.2464 15.42079550145959

Suivez LEMUR 2 VALHALLA en temps réel avec AllMySat

Download on the App Store